Simultaneous Nadir Overpasses (SNOs) Predictions

Prediction of SNOs between GOES-16 and NOAA-19 Satellite Orbit:

Table of predicted SNOs for the next 14.0 days since TLE Epoch: 5/9/2025
Index Date Time (GOES-16) GOES-16 Lat,Lon NOAA-19 Lat,Lon Distance(km) Time Diff (sec)
1 05/10/2025 15:31:53 0.07, -90.64 -0.77, -86.93 423.19 80
2 05/12/2025 04:06:01 -0.06, -91.41 -0.75, -94.53 355.18 80
3 05/13/2025 03:50:46 -0.06, -91.93 0.06, -91.49 50.43 80
4 05/14/2025 03:38:10 -0.06, -92.45 0.86, -88.45 456.03 80
5 05/15/2025 16:11:59 0.05, -93.27 0.69, -95.96 307.78 80
6 05/16/2025 15:56:44 0.05, -93.78 -0.18, -92.93 97.80 80
7 05/19/2025 04:18:15 -0.04, -95.07 -0.61, -97.47 274.53 80
8 05/20/2025 04:03:00 -0.04, -95.59 0.21, -94.43 131.40 80
9 05/22/2025 16:24:13 0.03, -96.94 0.48, -98.92 225.73 80
10 05/23/2025 16:08:58 0.03, -97.46 -0.34, -95.88 180.39 80
